Lafayette, LA

7:27 PM CDT on August 25, 2016 (GMT -0500)
Lafayette Regional

Weather History for KLFT - April, 2015

Change the Weather History Date:

Thursday, April 30, 2015

  Actual Average Record
Temperature  
Mean Temperature 68 °F 73 °F  
Max Temperature 82 °F 83 °F 92 °F (1955)
Min Temperature 54 °F 63 °F 45 °F (1965)
Degree Days  
Heating Degree Days 0 0  
Month to date heating degree days 3 38  
Since 1 July heating degree days 1529 1419  
Cooling Degree Days 3 8  
Month to date cooling degree days 216 159  
Year to date cooling degree days 311 254  
Growing Degree Days 18 (Base 50)    
Moisture  
Dew Point 51 °F    
Average Humidity 61    
Maximum Humidity 93    
Minimum Humidity 28    
Precipitation  
Precipitation 0.00 in 0.15 in 3.78 in (1940)
Month to date precipitation 11.12 3.93  
Year to date precipitation 22.14 17.84  
Snow  
Snow 0.00 in 0.00 in 0.00 in ()
Month to date snowfall 0.0 0.0  
Since 1 July snowfall T T  
Snow Depth 0.00 in    
Sea Level Pressure  
Sea Level Pressure 29.95 in    
Wind  
Wind Speed 5 mph (West)    
Max Wind Speed 15 mph    
Max Gust Speed 18 mph    
Visibility 10 miles    
Events      
T = Trace of Precipitation, MM = Missing Value Source: NWS Daily Summary

Daily Weather History Graph

Daily Weather History Graph

Search for Another Location

Airport or City:

Trip Planner

Search our weather history database for the weather conditions in past years. The results will help you decide how hot, cold, wet, or windy it might be!

Date:

Astronomy

Apr. 30, 2015 Rise Set
Actual Time 6:25 AM CDT 7:44 PM CDT
Civil Twilight 6:00 AM CDT 8:10 PM CDT
Nautical Twilight 5:30 AM CDT 8:40 PM CDT
Astronomical Twilight 4:59 AM CDT 9:11 PM CDT
Moon 4:52 PM CDT (4/30) 4:24 AM CDT (4/30)
Length of Visible Light 14h 09m
Length of Day
13h 19m
Waxing Gibbous, 89% of the Moon is Illuminated
Apr 30
Waxing Gibbous
May 3
Full
May 11
Last Quarter
May 17
New
May 25
First Quarter

Hourly Weather History & Observations

Time (CDT) Temp. Dew Point Humidity Pressure Visibility Wind Dir Wind Speed Gust Speed Precip Events Conditions
12:53 AM 59.0 °F 53.1 °F 81% 29.93 in 10.0 mi Calm Calm - N/A   Clear
1:53 AM 57.9 °F 53.1 °F 84% 29.92 in 10.0 mi Calm Calm - N/A   Clear
2:53 AM 57.0 °F 53.1 °F 87% 29.91 in 10.0 mi Calm Calm - N/A   Clear
3:53 AM 57.0 °F 53.1 °F 87% 29.91 in 10.0 mi Calm Calm - N/A   Clear
4:53 AM 55.9 °F 53.1 °F 90% 29.92 in 10.0 mi Calm Calm - N/A   Clear
5:53 AM 55.9 °F 53.1 °F 90% 29.94 in 10.0 mi Calm Calm - N/A   Clear
6:53 AM 57.0 °F 53.1 °F 87% 29.95 in 10.0 mi Calm Calm - N/A   Clear
7:53 AM 62.1 °F 54.0 °F 75% 29.97 in 10.0 mi NNW 3.5 mph - N/A   Clear
8:53 AM 68.0 °F 53.1 °F 59% 29.98 in 10.0 mi Calm Calm - N/A   Clear
9:53 AM 73.0 °F 48.9 °F 42% 29.99 in 10.0 mi Calm Calm - N/A   Clear
10:53 AM 75.9 °F 51.1 °F 42% 29.99 in 10.0 mi Variable 6.9 mph - N/A   Clear
11:53 AM 77.0 °F 50.0 °F 39% 29.99 in 10.0 mi West 10.4 mph - N/A   Clear
12:53 PM 79.0 °F 48.0 °F 34% 29.97 in 10.0 mi NW 6.9 mph - N/A   Partly Cloudy
1:53 PM 79.0 °F 43.0 °F 28% 29.96 in 10.0 mi Variable 4.6 mph - N/A   Clear
2:53 PM 80.1 °F 46.0 °F 30% 29.95 in 10.0 mi Variable 4.6 mph - N/A   Clear
3:53 PM 80.1 °F 46.0 °F 30% 29.93 in 10.0 mi NNW 5.8 mph - N/A   Partly Cloudy
4:53 PM 79.0 °F 46.0 °F 31% 29.91 in 10.0 mi Variable 4.6 mph - N/A   Partly Cloudy
5:53 PM 79.0 °F 46.9 °F 32% 29.91 in 10.0 mi WNW 9.2 mph - N/A   Clear
6:53 PM 77.0 °F 48.9 °F 37% 29.91 in 10.0 mi West 5.8 mph - N/A   Clear
7:53 PM 73.0 °F 51.1 °F 46% 29.93 in 10.0 mi WSW 8.1 mph - N/A   Clear
8:53 PM 72.0 °F 54.0 °F 53% 29.95 in 10.0 mi WSW 9.2 mph - N/A   Clear
9:53 PM 70.0 °F 53.1 °F 55% 29.97 in 10.0 mi WSW 9.2 mph - N/A   Clear
10:53 PM 68.0 °F 54.0 °F 61% 29.99 in 10.0 mi WSW 8.1 mph - N/A   Clear
11:53 PM 66.0 °F 55.0 °F 68% 29.99 in 10.0 mi WSW 5.8 mph - N/A   Clear